Dallas/Ft Worth, TX

12:24 PM CDT on March 23, 2017 (GMT -0500)
Dallas-Fort Worth International

Weather History for KDFW - April, 2014

Change the Weather History Date:

Wednesday, April 2, 2014

  Actual Average Record
Temperature  
Mean Temperature 77 °F 62 °F  
Max Temperature 83 °F 73 °F 94 °F (1918)
Min Temperature 71 °F 51 °F 32 °F (1936)
Degree Days  
Heating Degree Days 0 5  
Month to date heating degree days 0 10  
Since 1 July heating degree days 2494 2203  
Cooling Degree Days 12 2  
Month to date cooling degree days 22 4  
Year to date cooling degree days 44 43  
Growing Degree Days 26 (Base 50)    
Moisture  
Dew Point 66 °F    
Average Humidity 70    
Maximum Humidity 84    
Minimum Humidity 55    
Precipitation  
Precipitation 0.00 in 0.09 in 0.87 in (1910)
Month to date precipitation 0.00 0.19  
Year to date precipitation 2.19 8.47  
Snow  
Snow 0.00 in 0.00 in 0.00 in ()
Month to date snowfall 0.0 0.0  
Since 1 July snowfall 2.9 1.6  
Snow Depth 0.00 in    
Sea Level Pressure  
Sea Level Pressure 29.75 in    
Wind  
Wind Speed 17 mph (South)    
Max Wind Speed 28 mph    
Max Gust Speed 36 mph    
Visibility 10 miles    
Events      
T = Trace of Precipitation, MM = Missing Value Source: NWS Daily Summary

Daily Weather History Graph

Daily Weather History Graph

Search for Another Location

Airport or City:

Trip Planner

Search our weather history database for the weather conditions in past years. The results will help you decide how hot, cold, wet, or windy it might be!

Date:

Astronomy

Apr. 02, 2014 Rise Set
Actual Time 7:14 AM CDT 7:49 PM CDT
Civil Twilight 6:49 AM CDT 8:13 PM CDT
Nautical Twilight 6:20 AM CDT 8:43 PM CDT
Astronomical Twilight 5:50 AM CDT 9:13 PM CDT
Moon 9:08 AM CDT (4/2) 11:03 PM CDT (4/2)
Length of Visible Light 13h 24m
Length of Day
12h 34m
Waxing Crescent, 10% of the Moon is Illuminated
Apr 2
Waxing Crescent
Apr 7
First Quarter
Apr 15
Full
Apr 22
Last Quarter
Apr 29
New

Hourly Weather History & Observations

Time (CDT) Temp. Heat Index Dew Point Humidity Pressure Visibility Wind Dir Wind Speed Gust Speed Precip Events Conditions
12:53 AM 72.0 °F - 64.9 °F 78% 29.81 in 10.0 mi SSE 16.1 mph - N/A   Mostly Cloudy
1:53 AM 71.1 °F - 64.9 °F 81% 29.81 in 10.0 mi SSE 10.4 mph - N/A   Mostly Cloudy
2:53 AM 73.0 °F - 66.0 °F 79% 29.80 in 10.0 mi South 15.0 mph - N/A   Overcast
3:53 AM 72.0 °F - 66.0 °F 81% 29.78 in 10.0 mi South 18.4 mph - N/A   Mostly Cloudy
4:53 AM 72.0 °F - 64.9 °F 78% 29.77 in 10.0 mi South 16.1 mph - N/A   Overcast
5:53 AM 72.0 °F - 64.9 °F 78% 29.78 in 10.0 mi South 17.3 mph - N/A   Overcast
7:53 AM 72.0 °F - 66.0 °F 81% 29.80 in 9.0 mi South 18.4 mph - N/A   Overcast
8:53 AM 73.0 °F - 66.0 °F 79% 29.81 in 9.0 mi South 16.1 mph 23.0 mph N/A   Overcast
9:53 AM 73.9 °F - 66.9 °F 79% 29.82 in 10.0 mi South 15.0 mph - N/A   Overcast
10:53 AM 75.9 °F - 66.9 °F 74% 29.81 in 10.0 mi South 17.3 mph - N/A   Mostly Cloudy
11:53 AM 79.0 °F - 68.0 °F 69% 29.79 in 10.0 mi South 21.9 mph - N/A   Overcast
12:53 PM 75.0 °F - 68.0 °F 79% 29.78 in 8.0 mi South 12.7 mph - N/A   Overcast
1:25 PM 78.8 °F - 68.0 °F 69% 29.78 in 9.0 mi South 18.4 mph 25.3 mph N/A   Overcast
1:53 PM 79.0 °F - 66.0 °F 64% 29.75 in 10.0 mi South 21.9 mph 26.5 mph N/A   Overcast
2:53 PM 80.1 °F 82.1 °F 66.0 °F 62% 29.73 in 10.0 mi South 15.0 mph 25.3 mph N/A   Overcast
3:53 PM 82.9 °F 84.6 °F 64.9 °F 54% 29.69 in 10.0 mi South 24.2 mph 31.1 mph N/A   Overcast
4:53 PM 80.6 °F 82.3 °F 64.4 °F 58% 29.70 in 10.0 mi South 23.0 mph 31.1 mph N/A   Overcast
5:53 PM 80.1 °F 81.9 °F 64.9 °F 60% 29.68 in 10.0 mi South 21.9 mph 33.4 mph N/A   Overcast
6:53 PM 78.1 °F - 64.0 °F 62% 29.68 in 10.0 mi South 20.7 mph 27.6 mph N/A   Overcast
7:53 PM 77.0 °F - 64.0 °F 64% 29.66 in 10.0 mi SSE 12.7 mph 21.9 mph N/A   Overcast
8:53 PM 77.0 °F - 64.0 °F 64% 29.68 in 10.0 mi SSE 16.1 mph - N/A   Overcast
9:53 PM 75.9 °F - 64.9 °F 69% 29.68 in 10.0 mi SSE 12.7 mph - N/A   Mostly Cloudy
10:53 PM 75.0 °F - 64.9 °F 71% 29.69 in 10.0 mi SSE 15.0 mph - N/A   Mostly Cloudy
11:53 PM 73.9 °F - 66.9 °F 79% 29.68 in 10.0 mi South 20.7 mph - N/A   Mostly Cloudy